Chicago, IL

12:13 PM CST on November 12, 2019 (GMT -0600)
Chicago-O'Hare International

Weather History for KORD - May, 2019

Change the Weather History Date:

Wednesday, May 29, 2019

  Actual Average Record
Temperature  
Mean Temperature 64 °F 63 °F  
Max Temperature 75 °F 74 °F 95 °F (1942)
Min Temperature 52 °F 52 °F 37 °F (1984)
Degree Days  
Heating Degree Days 2 4  
Month to date heating degree days 236 217  
Since 1 July heating degree days 6425 6284  
Cooling Degree Days 0 2  
Month to date cooling degree days 19 38  
Year to date cooling degree days 23 48  
Growing Degree Days 14 (Base 50)    
Moisture  
Dew Point 55 °F    
Average Humidity 85    
Maximum Humidity 100    
Minimum Humidity 64    
Precipitation  
Precipitation 0.18 in 0.12 in 3.45 in (1981)
Month to date precipitation 8.03 3.44  
Year to date precipitation 20.91 12.84  
Snow  
Snow 0.00 in 0.00 in 0.00 in ()
Month to date snowfall T 0.0  
Since 1 July snowfall 49.5 36.3  
Snow Depth 0.00 in    
Sea Level Pressure  
Sea Level Pressure 29.75 in    
Wind  
Wind Speed 7 mph ()    
Max Wind Speed 23 mph    
Max Gust Speed 32 mph    
Visibility 8.0 miles    
Events Rain    
T = Trace of Precipitation, MM = Missing Value Source: Averaged Metar Reports

Daily Weather History Graph

Daily Weather History Graph

Search for Another Location

Airport or City:

Astronomy

May. 29, 2019 Rise Set
Actual Time 5:20 AM CDT 8:18 PM CDT
Civil Twilight 4:46 AM CDT 8:51 PM CDT
Nautical Twilight 4:04 AM CDT 9:34 PM CDT
Astronomical Twilight 3:15 AM CDT 10:23 PM CDT
Moon 3:05 AM CDT (5/29) 3:20 PM CDT (5/29)
Length of Visible Light 16h 04m
Length of Day
14h 57m
Waning Crescent, 23% of the Moon is Illuminated
May 29
Waning Crescent
Jun 3
New
Jun 10
First Quarter
Jun 17
Full
Jun 25
Last Quarter

Hourly Weather History & Observations

Time (CDT) Temp. Dew Point Humidity Pressure Visibility Wind Dir Wind Speed Gust Speed Precip Events Conditions
12:01 AM 53.1 °F 52.0 °F 96% 29.80 in 4.0 mi SW 6.9 mph - 0.03 in Rain Rain
12:18 AM 53.1 °F 52.0 °F 96% 29.78 in 6.0 mi WNW 3.5 mph - 0.07 in Rain Light Rain
12:51 AM 53.1 °F 52.0 °F 96% 29.75 in 7.0 mi WNW 4.6 mph - 0.10 in Rain Light Rain
1:51 AM 53.1 °F 52.0 °F 96% 29.71 in 6.0 mi East 4.6 mph - 0.04 in Rain Light Rain
2:20 AM 53.1 °F 52.0 °F 96% 29.71 in 6.0 mi SSE 11.5 mph - 0.02 in Rain Light Rain
2:35 AM 53.1 °F 52.0 °F 96% 29.69 in 7.0 mi SSE 13.8 mph - 0.03 in Rain Light Rain
2:51 AM 53.1 °F 53.1 °F 100% 29.70 in 7.0 mi South 6.9 mph 18.4 mph 0.03 in Rain Light Rain
3:51 AM 54.0 °F 53.1 °F 97% 29.75 in 5.0 mi NNW 16.1 mph 29.9 mph 0.01 in Rain Light Rain
4:07 AM 53.1 °F 53.1 °F 100% 29.74 in 7.0 mi NNW 20.7 mph 28.8 mph 0.00 in   Overcast
4:46 AM 53.6 °F 51.8 °F 94% 29.72 in 10.0 mi ENE 5.8 mph - 0.00 in   Overcast
4:51 AM 53.1 °F 52.0 °F 96% 29.73 in 10.0 mi NE 5.8 mph - 0.00 in   Overcast
5:51 AM 52.0 °F 51.1 °F 97% 29.72 in 6.0 mi SE 10.4 mph - N/A   Overcast
6:13 AM 52.0 °F 51.1 °F 97% 29.72 in 5.0 mi SSE 8.1 mph - N/A   Overcast
6:38 AM 53.1 °F 52.0 °F 96% 29.69 in 4.0 mi South 12.7 mph - N/A   Overcast
6:51 AM 53.1 °F 52.0 °F 96% 29.70 in 3.0 mi SSE 6.9 mph - N/A   Overcast
7:42 AM 55.0 °F 54.0 °F 96% 29.73 in 4.0 mi West 5.8 mph - N/A   Overcast
7:49 AM 55.4 °F 53.6 °F 94% 29.72 in 5.0 mi WSW 5.8 mph - N/A   Overcast
7:51 AM 55.9 °F 54.0 °F 93% 29.73 in 5.0 mi WSW 5.8 mph - N/A   Overcast
8:04 AM 57.0 °F 54.0 °F 89% 29.73 in 7.0 mi West 4.6 mph - N/A   Mostly Cloudy
8:51 AM 60.1 °F 55.9 °F 86% 29.77 in 9.0 mi NW 5.8 mph - N/A   Overcast
9:48 AM 60.8 °F 57.2 °F 88% 29.79 in 10.0 mi WSW 6.9 mph - N/A   Overcast
9:51 AM 60.1 °F 57.0 °F 90% 29.79 in 10.0 mi West 6.9 mph - N/A   Overcast
10:35 AM 63.0 °F 57.9 °F 84% 29.78 in 10.0 mi West 6.9 mph - N/A   Mostly Cloudy
10:51 AM 64.9 °F 59.0 °F 81% 29.78 in 10.0 mi West 6.9 mph - N/A   Mostly Cloudy
11:51 AM 69.1 °F 60.1 °F 73% 29.77 in 10.0 mi Variable 4.6 mph - N/A   Mostly Cloudy
12:32 PM 70.0 °F 59.0 °F 68% 29.78 in 10.0 mi Variable 4.6 mph - N/A   Mostly Cloudy
12:51 PM 71.1 °F 60.1 °F 68% 29.77 in 10.0 mi Variable 3.5 mph - N/A   Mostly Cloudy
1:51 PM 72.0 °F 61.0 °F 68% 29.77 in 10.0 mi NNW 3.5 mph - N/A   Overcast
2:25 PM 73.0 °F 61.0 °F 66% 29.77 in 10.0 mi Variable 5.8 mph - N/A   Mostly Cloudy
2:51 PM 73.0 °F 60.1 °F 64% 29.77 in 10.0 mi ENE 3.5 mph - N/A   Mostly Cloudy
3:51 PM 73.9 °F 61.0 °F 64% 29.75 in 10.0 mi East 4.6 mph - N/A   Mostly Cloudy
4:51 PM 72.0 °F 60.1 °F 66% 29.76 in 10.0 mi ESE 5.8 mph - N/A   Mostly Cloudy
5:51 PM 72.0 °F 59.0 °F 64% 29.74 in 10.0 mi East 8.1 mph - N/A   Overcast
6:51 PM 66.0 °F 55.9 °F 70% 29.76 in 10.0 mi East 10.4 mph - N/A   Overcast
7:51 PM 64.0 °F 55.0 °F 73% 29.75 in 10.0 mi ESE 8.1 mph - N/A   Overcast
8:51 PM 62.1 °F 55.0 °F 78% 29.77 in 10.0 mi ESE 4.6 mph - N/A   Overcast
9:51 PM 60.1 °F 54.0 °F 80% 29.78 in 10.0 mi SE 6.9 mph - N/A   Overcast
10:51 PM 60.1 °F 54.0 °F 80% 29.76 in 10.0 mi SE 3.5 mph - N/A   Overcast
11:51 PM 60.1 °F 55.0 °F 83% 29.75 in 10.0 mi ESE 4.6 mph - N/A   Overcast